Location: Lecco
(45.8566°N, 9.3977°E)
Time: 11:53:57
(UTC+02:00)

Explorer 11/Cluster Stage 4 - Pass Details

Date: 22 August 2020
Orbit: 467 x 1258 km, 28.8° (Epoch: 24 September)

Event Time Altitude Azimuth Distance (km) Brightness Sun altitude
Rises 22:24:24 0° 245° (WSW) 3,580 10.3 -19.8°
Reaches altitude 10° 22:28:22 10° 221° (SW) 2,807 9.4 -20.3°
Maximum altitude 22:31:41 14° 193° (SSW) 2,647 9.0 -20.8°
Enters shadow 22:32:07 14° 189° (S) 2,667 9.0 -20.8°
Drops below altitude 10° 22:35:12 10° 165° (SSE) 3,044 - -21.2°
Sets 22:39:52 0° 142° (SE) 4,117 - -21.8°
